| time (UTC) | temp F | wind direction | speed MPH | gust MPH | rain 1hr in | rain 24hr in | rain mn in | humidity % | barometer mb |
| 20260506004506 | 73 | 344 | 1.0 | 6.0 | 0.00 | 0.00 | 0.00 | 69 | 1006.7 |
| 20260506003005 | 74 | 288 | 4.0 | 10.0 | 0.00 | 0.00 | 0.00 | 68 | 1006.5 |
| 20260506000004 | 77 | 42 | 3.0 | 11.0 | 0.00 | 0.00 | 0.00 | 66 | 1005.9 |
| 20260505234506 | 78 | 319 | 4.0 | 11.0 | 0.00 | 0.00 | 0.00 | 64 | 1005.7 |
| 20260505233021 | 79 | 14 | 5.0 | 16.0 | 0.00 | 0.00 | 0.00 | 62 | 1005.4 |
| 20260505231504 | 82 | 35 | 4.0 | 14.0 | 0.00 | 0.00 | 0.00 | 60 | 1005.4 |
| 20260505224504 | 86 | 340 | 2.0 | 11.0 | 0.00 | 0.00 | 0.00 | 50 | 1004.9 |
| 20260505223006 | 88 | 5 | 4.0 | 9.0 | 0.00 | 0.00 | 0.00 | 47 | 1004.5 |
| 20260505221509 | 89 | 312 | 5.0 | 13.0 | 0.00 | 0.00 | 0.00 | 45 | 1004.3 |
| 20260505220004 | 90 | 271 | 5.0 | 9.0 | 0.00 | 0.00 | 0.00 | 51 | 1004.2 |
| 20260505213011 | 90 | 245 | 2.0 | 14.0 | 0.00 | 0.00 | 0.00 | 52 | 1004.5 |
| 20260505211508 | 90 | 248 | 3.0 | 10.0 | 0.00 | 0.00 | 0.00 | 53 | 1004.5 |
| 20260505210008 | 89 | 201 | 5.0 | 12.0 | 0.00 | 0.00 | 0.00 | 54 | 1004.7 |
| 20260505204507 | 88 | 255 | 3.0 | 11.0 | 0.00 | 0.00 | 0.00 | 55 | 1004.8 |
| 20260505203009 | 89 | 300 | 3.0 | 11.0 | 0.00 | 0.00 | 0.00 | 55 | 1005.1 |
| 20260505201510 | 89 | 171 | 2.0 | 12.0 | 0.00 | 0.00 | 0.00 | 55 | 1005.2 |
| 20260505200025 | 88 | 210 | 3.0 | 14.0 | 0.00 | 0.00 | 0.00 | 57 | 1005.2 |
| 20260505194512 | 87 | 196 | 5.0 | 13.0 | 0.00 | 0.00 | 0.00 | 56 | 1005.2 |
| 20260505191512 | 86 | 240 | 4.0 | 12.0 | 0.00 | 0.00 | 0.00 | 58 | 1005.1 |
| 20260505190011 | 86 | 202 | 3.0 | 9.0 | 0.00 | 0.00 | 0.00 | 60 | 1005.3 |
| 20260505184517 | 85 | 209 | 5.0 | 15.0 | 0.00 | 0.00 | 0.00 | 59 | 1005.4 |
| 20260505183012 | 85 | 197 | 5.0 | 14.0 | 0.00 | 0.00 | 0.00 | 62 | 1005.2 |
| 20260505180016 | 84 | 188 | 4.0 | 14.0 | 0.00 | 0.00 | 0.00 | 66 | 1005.3 |
| 20260505174516 | 83 | 194 | 5.0 | 12.0 | 0.00 | 0.00 | 0.00 | 66 | 1005.4 |
| 20260505173034 | 82 | 190 | 4.0 | 15.0 | 0.00 | 0.00 | 0.00 | 69 | 1005.5 |
| 20260505164529 | 79 | 236 | 6.0 | 14.0 | 0.00 | 0.00 | 0.00 | 73 | 1005.5 |
| 20260505163017 | 78 | 128 | 5.0 | 16.0 | 0.00 | 0.00 | 0.00 | 74 | 1005.5 |
| 20260505161516 | 78 | 218 | 5.0 | 18.0 | 0.00 | 0.00 | 0.00 | 74 | 1005.4 |
| 20260505151505 | 75 | 188 | 6.0 | 20.0 | 0.00 | 0.00 | 0.00 | 78 | 1005.1 |
| 20260505124507 | 72 | 209 | 6.0 | 13.0 | 0.00 | 0.00 | 0.00 | 83 | 1004.8 |
| 20260505123014 | 71 | 182 | 5.0 | 18.0 | 0.00 | 0.00 | 0.00 | 83 | 1004.4 |
| 20260505121514 | 71 | 161 | 5.0 | 16.0 | 0.00 | 0.00 | 0.00 | 83 | 1004.4 |
| 20260505114510 | 72 | 171 | 5.0 | 18.0 | 0.00 | 0.00 | 0.00 | 82 | 1004.3 |
| 20260505113013 | 71 | 227 | 5.0 | 13.0 | 0.00 | 0.00 | 0.00 | 83 | 1004.3 |
| 20260505111516 | 71 | 165 | 7.0 | 18.0 | 0.00 | 0.00 | 0.00 | 83 | 1003.9 |
| 20260505101516 | 71 | 202 | 8.0 | 18.0 | 0.00 | 0.00 | 0.00 | 83 | 1004.1 |
| 20260505100016 | 71 | 199 | 5.0 | 19.0 | 0.00 | 0.00 | 0.00 | 83 | 1004.2 |
| 20260505094521 | 71 | 131 | 6.0 | 17.0 | 0.00 | 0.00 | 0.00 | 83 | 1004.2 |
| 20260505093009 | 71 | 209 | 5.0 | 17.0 | 0.00 | 0.00 | 0.00 | 83 | 1004.3 |
| 20260505091509 | 71 | 204 | 5.0 | 14.0 | 0.00 | 0.00 | 0.00 | 83 | 1004.6 |
| 20260505090014 | 71 | 242 | 5.0 | 16.0 | 0.00 | 0.00 | 0.00 | 83 | 1004.6 |
| 20260505084522 | 71 | 211 | 3.0 | 13.0 | 0.00 | 0.00 | 0.00 | 82 | 1004.6 |
| 20260505083031 | 71 | 197 | 4.0 | 13.0 | 0.00 | 0.00 | 0.00 | 82 | 1004.6 |
| 20260505081507 | 71 | 169 | 4.0 | 16.0 | 0.00 | 0.00 | 0.00 | 81 | 1004.7 |
| 20260505080014 | 72 | 171 | 5.0 | 18.0 | 0.00 | 0.00 | 0.00 | 80 | 1004.8 |
| 20260505074520 | 72 | 198 | 5.0 | 13.0 | 0.00 | 0.00 | 0.00 | 80 | 1004.9 |
| 20260505073022 | 72 | 162 | 5.0 | 14.0 | 0.00 | 0.00 | 0.00 | 79 | 1005.3 |
| 20260505071525 | 72 | 173 | 5.0 | 15.0 | 0.00 | 0.00 | 0.00 | 78 | 1005.4 |
| 20260505070011 | 72 | 179 | 4.0 | 16.0 | 0.00 | 0.00 | 0.00 | 78 | 1005.7 |
| 20260505064516 | 72 | 202 | 5.0 | 13.0 | 0.00 | 0.00 | 0.00 | 77 | 1005.9 |
| 20260505063031 | 72 | 200 | 3.0 | 14.0 | 0.00 | 0.00 | 0.00 | 77 | 1005.9 |
| 20260505061530 | 72 | 198 | 5.0 | 14.0 | 0.00 | 0.00 | 0.00 | 76 | 1006.1 |
| 20260505060020 | 72 | 138 | 3.0 | 15.0 | 0.00 | 0.00 | 0.00 | 76 | 1005.9 |
| 20260505054518 | 73 | 173 | 3.0 | 13.0 | 0.00 | 0.00 | 0.00 | 75 | 1006.1 |
| 20260505053018 | 73 | 158 | 6.0 | 14.0 | 0.00 | 0.00 | 0.00 | 74 | 1006.4 |
| 20260505051526 | 73 | 193 | 4.0 | 14.0 | 0.00 | 0.00 | 0.00 | 74 | 1006.7 |
| 20260505041518 | 74 | 188 | 7.0 | 22.0 | 0.00 | 0.00 | 0.00 | 71 | 1006.7 |
| 20260505040025 | 74 | 215 | 4.0 | 17.0 | 0.00 | 0.00 | 0.00 | 71 | 1006.7 |
| 20260505034526 | 74 | 219 | 4.0 | 22.0 | 0.00 | 0.00 | 0.00 | 70 | 1006.6 |
| 20260505033026 | 74 | 189 | 7.0 | 18.0 | 0.00 | 0.00 | 0.00 | 70 | 1006.8 |
| 20260505031518 | 74 | 198 | 5.0 | 16.0 | 0.00 | 0.00 | 0.00 | 70 | 1006.7 |
| 20260505030020 | 75 | 211 | 4.0 | 18.0 | 0.00 | 0.00 | 0.00 | 70 | 1006.8 |
| 20260505024548 | 75 | 156 | 5.0 | 17.0 | 0.00 | 0.00 | 0.00 | 69 | 1006.7 |
| 20260505021529 | 75 | 113 | 4.0 | 14.0 | 0.00 | 0.00 | 0.00 | 68 | 1006.7 |
| 20260505020018 | 76 | 208 | 5.0 | 14.0 | 0.00 | 0.00 | 0.00 | 67 | 1006.4 |
| 20260505014526 | 76 | 166 | 3.0 | 14.0 | 0.00 | 0.00 | 0.00 | 66 | 1006.5 |
| 20260505013025 | 76 | 191 | 5.0 | 19.0 | 0.00 | 0.00 | 0.00 | 65 | 1006.6 |
| 20260505011535 | 77 | 188 | 5.0 | 18.0 | 0.00 | 0.00 | 0.00 | 65 | 1006.5 |
| 20260505010018 | 77 | 143 | 6.0 | 13.0 | 0.00 | 0.00 | 0.00 | 64 | 1006.3 |